Location: Clanezzo
(45.7500°N, 9.6000°E)
Time: 13:55:23
(UTC+00:00)

Cosmos 2181 Rocket - Pass Details

Date: 12 May 2021
Orbit: 952 x 1014 km, 82.9° (Epoch: 19 June)

Event Time Altitude Azimuth Distance (km) Brightness Sun altitude
Exits shadow 22:11:53 53° 179° (S) 1,168 4.0 -24.1°
Maximum altitude 22:13:29 85° 97° (E) 968 3.9 -24.2°
Drops below altitude 10° 22:19:38 10° 10° (N) 2,691 7.2 -24.5°
Sets 22:22:08 0° 10° (N) 3,640 8.1 -24.6°
